Flight Track Log - Related Links

Times and Time Zones

All times are in EDT time to prevent confusion due to time zone crossing. See the UPS768 flight status page for this flight to view local times or setup timezone preferences in your user account.


Time Position Orientation Groundspeed Altitude Reporting Facility
EDT Latitude Longitude Course Direction KTS MPH feet Rate Location/Type
Sat 05:03:42 AM 38.1650 -85.7370 289° West 25 29  Level FlightAware ADS-B
Sat 05:04:41 AM 38.1650 -85.7390 270° West 19 22 99 Level FlightAware ADS-B
Sat 05:05:04 AM 38.1660 -85.7400 322° Northwest 25 29 110 Level FlightAware ADS-B
Sat 05:06:34 AM 38.1680 -85.7410 339° North 30 35 116 Level FlightAware ADS-B
Sat 05:06:41 AM 38.1700 -85.7420 339° North 16 18 144 Level FlightAware ADS-B
Sat 05:07:14 AM 38.1730 -85.7430 345° North 19 22 146 Level FlightAware ADS-B
Sat 05:07:39 AM 38.1750 -85.7430 360° North 18 21 161 Level FlightAware ADS-B
Sat 05:08:24 AM 38.1790 -85.7440 349° North 33 38 174 Level FlightAware ADS-B
Sat 05:09:22 AM 38.1820 -85.7460 332° Northwest 30 35 203 Level FlightAware ADS-B
Sat 05:09:51 AM 38.1840 -85.7460 360° North 21 24 260 Level FlightAware ADS-B
Sat 05:10:39 AM 38.1850 -85.7460 360° North 10 12 302 Level FlightAware ADS-B
Sat 05:10:58 AM 38.1850 -85.7470 270° West 20 23 412 Level FlightAware ADS-B
Sat 05:11:26 AM 38.1850 -85.7480 270° West 24 28 482 Level FlightAware ADS-B
Sat 05:11:54 AM 38.1840 -85.7480 180° South 23 26 643 Level FlightAware ADS-B
Sat 05:12:20 AM 38.1770 -85.7460 167° South 110 127 964 Level FlightAware ADS-B
Sat 05:12:50 AM 38.1570 -85.7390 165° South 159 183 900 1,826 Climbing FlightAware ADS-B
Sat 05:13:06 AM 38.1450 -85.7380 176° South 175 201 1,400 1,636 Climbing FlightAware ADS-B
Sat 05:13:34 AM 38.1190 -85.7430 189° South 224 258 2,100 2,036 Climbing FlightAware ADS-B
Sat 05:14:02 AM 38.0870 -85.7500 190° South 263 303 3,300 3,429 Climbing FlightAware ADS-B
Sat 05:14:30 AM 38.0520 -85.7560 188° South 266 306 5,300 4,050 Climbing FlightAware ADS-B
Sat 05:14:42 AM 38.0380 -85.7610 196° South 272 313 6,000 3,000 Climbing FlightAware ADS-B
Sat 05:14:58 AM 38.0220 -85.7750 215° Southwest 280 322 6,700 3,000 Climbing FlightAware ADS-B
Sat 05:15:10 AM 38.0130 -85.7900 233° Southwest 278 320 7,400 3,900 Climbing FlightAware ADS-B
Sat 05:15:38 AM 38.0010 -85.8340 251° West 278 320 9,300 2,833 Climbing FlightAware ADS-B
Sat 05:16:22 AM 37.9840 -85.9070 254° West 327 376 10,800 1,929 Climbing FlightAware ADS-B
Sat 05:17:02 AM 37.9630 -85.9850 251° West 375 432 12,000 2,370 Climbing FlightAware ADS-B
Sat 05:17:43 AM 37.9330 -86.0720 246° West 396 456 14,000 2,897 Climbing FlightAware ADS-B
Sat 05:18:29 AM 37.8990 -86.1690 246° West 411 473 16,200 2,651 Climbing FlightAware ADS-B
Sat 05:19:09 AM 37.8650 -86.2580 244° Southwest 426 490 17,800 2,341 Climbing FlightAware ADS-B
Sat 05:19:51 AM 37.8300 -86.3540 245° Southwest 444 511 19,400 1,263 Climbing FlightAware ADS-B
Sat 05:21:03 AM 37.7730 -86.5100 245° Southwest 449 517 20,200 2,105 Climbing FlightAware ADS-B
Sat 05:21:45 AM 37.7270 -86.6320 245° Southwest 479 551 23,400 3,366 Climbing FlightAware ADS-B
Sat 05:22:25 AM 37.6870 -86.7370 244° Southwest 488 562 24,800 1,929 Climbing FlightAware ADS-B
Sat 05:23:09 AM 37.6440 -86.8500 244° Southwest 498 573 26,100 2,286 Climbing FlightAware ADS-B
Sat 05:23:49 AM 37.6050 -86.9540 245° Southwest 489 563 28,000 3,037 Climbing FlightAware ADS-B
Sat 05:24:30 AM 37.5650 -87.0590 244° Southwest 474 545 30,200 2,927 Climbing FlightAware ADS-B
Sat 05:25:11 AM 37.5270 -87.1600 245° Southwest 463 533 32,000 2,621 Climbing FlightAware ADS-B
Sat 05:25:57 AM 37.4850 -87.2690 244° Southwest 448 516 34,000 2,400 Climbing FlightAware ADS-B
Sat 05:26:36 AM 37.4500 -87.3590 244° Southwest 438 504 35,400 1,500 Climbing FlightAware ADS-B
Sat 05:27:17 AM 37.4150 -87.4510 244° Southwest 437 503 36,000 424 Climbing FlightAware ADS-B
Sat 05:28:01 AM 37.3760 -87.5530 244° Southwest 433 498 36,000  Level FlightAware ADS-B
Sat 05:28:41 AM 37.3420 -87.6410 244° Southwest 436 502 36,000  Level FlightAware ADS-B
Sat 05:29:25 AM 37.3020 -87.7430 244° Southwest 436 502 36,000  Level FlightAware ADS-B
Sat 05:30:03 AM 37.2690 -87.8290 244° Southwest 436 502 36,000  Level FlightAware ADS-B
Sat 05:30:47 AM 37.2290 -87.9300 244° Southwest 437 503 36,000  Level FlightAware ADS-B
Sat 05:31:32 AM 37.1890 -88.0320 244° Southwest 436 502 36,000  Level FlightAware ADS-B
Sat 05:32:11 AM 37.1550 -88.1190 244° Southwest 433 498 36,000  Level FlightAware ADS-B
Sat 05:32:47 AM 37.1240 -88.1990 244° Southwest 432 497 36,000  Level FlightAware ADS-B
Sat 05:33:49 AM 37.0720 -88.3280 243° Southwest 431 496 36,000  Level FlightAware ADS-B
Sat 05:34:25 AM 37.0450 -88.3960 244° Southwest 431 496 36,000  Level FlightAware ADS-B
Sat 05:35:32 AM 36.9930 -88.5230 243° Southwest 431 496 36,000  Level FlightAware ADS-B
Sat 05:36:08 AM 36.9490 -88.6380 244° Southwest 427 491 36,000  Level FlightAware ADS-B
Sat 05:37:01 AM 36.9040 -88.7520 244° Southwest 428 493 36,000  Level FlightAware ADS-B
Sat 05:38:05 AM 36.8450 -88.8960 243° Southwest 429 494 36,000 61 Level FlightAware ADS-B
Sat 05:38:40 AM 36.8120 -88.9820 244° Southwest 430 495 36,100 61 Climbing FlightAware ADS-B
Sat 05:39:43 AM 36.7630 -89.1000 243° Southwest 430 495 36,100  Level FlightAware ADS-B
Sat 05:40:23 AM 36.7330 -89.1750 243° Southwest 430 495 36,100  Level FlightAware ADS-B
Sat 05:40:59 AM 36.7050 -89.2430 243° Southwest 430 495 36,100  Level FlightAware ADS-B
Sat 05:41:47 AM 36.6680 -89.3330 243° Southwest 430 495 36,100  Level FlightAware ADS-B
Sat 05:42:23 AM 36.6400 -89.4010 243° Southwest 430 495 36,100 -75 Level FlightAware ADS-B
Sat 05:43:07 AM 36.5790 -89.5530 243° Southwest 420 483 36,000 -58 Descending FlightAware ADS-B
Sat 05:44:06 AM 36.5210 -89.6930 243° Southwest 424 488 36,000  Level FlightAware ADS-B
Sat 05:44:49 AM 36.4860 -89.7750 242° Southwest 424 488 36,000 54 Level FlightAware ADS-B
Sat 05:45:58 AM 36.4500 -89.8630 243° Southwest 427 491 36,100 57 Climbing FlightAware ADS-B
Sat 05:46:35 AM 36.4210 -89.9310 242° Southwest 427 491 36,100  Level FlightAware ADS-B
Sat 05:47:23 AM 36.3830 -90.0200 242° Southwest 427 491 36,100  Level FlightAware ADS-B
Sat 05:47:59 AM 36.3550 -90.0860 242° Southwest 427 491 36,100  Level FlightAware ADS-B
Sat 05:48:47 AM 36.3170 -90.1740 242° Southwest 427 491 36,100  Level FlightAware ADS-B
Sat 05:49:23 AM 36.2890 -90.2410 243° Southwest 427 491 36,100 -78 Level FlightAware ADS-B
Sat 05:50:04 AM 36.1950 -90.4730 243° Southwest 433 498 36,000  Descending FlightAware ADS-B
Sat 05:50:48 AM 36.1530 -90.5710 242° Southwest 432 497 36,100  Climbing FlightAware ADS-B
Sat 05:51:34 AM 36.1090 -90.6740 242° Southwest 429 494 36,000 -68 Descending FlightAware ADS-B
Sat 05:52:16 AM 36.0710 -90.7640 242° Southwest 430 495 36,000  Level FlightAware ADS-B
Sat 05:53:00 AM 36.0300 -90.8610 242° Southwest 428 493 36,000  Level FlightAware ADS-B
Sat 05:53:42 AM 35.9910 -90.9510 242° Southwest 429 494 36,000  Level FlightAware ADS-B
Sat 05:54:39 AM 35.9430 -91.0580 241° Southwest 429 494 36,000  Level FlightAware ADS-B
Sat 05:55:15 AM 35.9140 -91.1230 241° Southwest 429 494 36,000  Level FlightAware ADS-B
Sat 05:55:56 AM 35.8660 -91.2400 243° Southwest 432 497 36,000  Level FlightAware ADS-B
Sat 05:56:40 AM 35.8260 -91.3340 242° Southwest 433 498 36,000  Level FlightAware ADS-B
Sat 05:57:20 AM 35.7870 -91.4230 242° Southwest 434 499 36,000  Level FlightAware ADS-B
Sat 05:58:17 AM 35.7370 -91.5350 241° Southwest 435 501 36,000  Level FlightAware ADS-B
Sat 05:58:59 AM 35.6930 -91.6370 242° Southwest 436 502 36,000  Level FlightAware ADS-B
Sat 05:59:38 AM 35.6560 -91.7230 242° Southwest 437 503 36,000  Level FlightAware ADS-B
Sat 06:00:22 AM 35.6130 -91.8210 242° Southwest 438 504 36,000 68 Level FlightAware ADS-B
Sat 06:01:06 AM 35.5710 -91.9150 241° Southwest 438 504 36,100  Climbing FlightAware ADS-B
Sat 06:02:15 AM 35.5050 -92.0650 242° Southwest 437 503 36,000 -56 Descending FlightAware ADS-B
Sat 06:02:54 AM 35.4660 -92.1510 241° Southwest 436 502 36,000  Level FlightAware ADS-B
Sat 06:03:52 AM 35.4110 -92.2750 241° Southwest 433 498 36,000  Level FlightAware ADS-B
Sat 06:04:36 AM 35.3690 -92.3700 242° Southwest 430 495 36,000  Level FlightAware ADS-B
Sat 06:05:16 AM 35.3320 -92.4520 241° Southwest 427 491 36,000  Level FlightAware ADS-B
Sat 06:05:58 AM 35.2910 -92.5440 241° Southwest 424 488 36,000  Level FlightAware ADS-B
Sat 06:06:40 AM 35.2530 -92.6280 241° Southwest 423 487 36,000  Level FlightAware ADS-B
Sat 06:07:22 AM 35.2120 -92.7180 241° Southwest 426 490 36,000  Level FlightAware ADS-B
Sat 06:08:03 AM 35.1730 -92.8030 241° Southwest 431 496 36,000  Level FlightAware ADS-B
Sat 06:08:49 AM 35.1310 -92.8970 241° Southwest 434 499 36,000  Level FlightAware ADS-B
Sat 06:09:25 AM 35.1010 -92.9620 241° Southwest 434 499 36,000 72 Level FlightAware ADS-B
Sat 06:10:12 AM 35.0450 -93.0860 241° Southwest 442 509 36,100 74 Climbing FlightAware ADS-B
Sat 06:10:46 AM 35.0140 -93.1520 240° Southwest 442 509 36,100  Level FlightAware ADS-B
Sat 06:11:32 AM 34.9740 -93.2360 240° Southwest 442 509 36,100 -57 Level FlightAware ADS-B
Sat 06:12:32 AM 34.9120 -93.3730 241° Southwest 440 506 36,000 -61 Descending FlightAware ADS-B
Sat 06:13:10 AM 34.8790 -93.4430 240° Southwest 440 506 36,000  Level FlightAware ADS-B
Sat 06:13:47 AM 34.8470 -93.5100 240° Southwest 440 506 36,000  Level FlightAware ADS-B
Sat 06:14:36 AM 34.8050 -93.6000 240° Southwest 440 506 36,000  Level FlightAware ADS-B
Sat 06:15:14 AM 34.7720 -93.6690 240° Southwest 440 506 36,000  Level FlightAware ADS-B
Sat 06:16:01 AM 34.7310 -93.7550 240° Southwest 440 506 36,000  Level FlightAware ADS-B
Sat 06:16:37 AM 34.7000 -93.8210 240° Southwest 440 506 36,000  Level FlightAware ADS-B
Sat 06:17:25 AM 34.6580 -93.9080 240° Southwest 440 506 36,000  Level FlightAware ADS-B
Sat 06:18:02 AM 34.6260 -93.9750 240° Southwest 440 506 36,000  Level FlightAware ADS-B
Sat 06:18:49 AM 34.5860 -94.0610 241° Southwest 440 506 36,000  Level FlightAware ADS-B
Sat 06:19:25 AM 34.5550 -94.1260 240° Southwest 440 506 36,000  Level FlightAware ADS-B
Sat 06:20:14 AM 34.5120 -94.2160 240° Southwest 440 506 36,000  Level FlightAware ADS-B
Sat 06:20:49 AM 34.4820 -94.2790 240° Southwest 440 506 36,000  Level FlightAware ADS-B
Sat 06:21:37 AM 34.4400 -94.3660 240° Southwest 440 506 36,000  Level FlightAware ADS-B
Sat 06:22:17 AM 34.2790 -94.6280 233° Southwest 440 506 36,000  Level FlightAware ADS-B
Sat 06:22:56 AM 34.2330 -94.7110 236° Southwest 441 507 36,000  Level FlightAware ADS-B
Sat 06:23:57 AM 34.1700 -94.8250 236° Southwest 442 509 36,000  Level FlightAware ADS-B
Sat 06:24:40 AM 34.1150 -94.9220 236° Southwest 443 510 36,000 77 Level FlightAware ADS-B
Sat 06:25:15 AM 34.0750 -94.9950 237° Southwest 443 510 36,100  Climbing FlightAware ADS-B
Sat 06:26:17 AM 34.0640 -95.0130 234° Southwest 443 510 36,000 -396 Descending FlightAware ADS-B
Sat 06:27:01 AM 33.9530 -95.2110 236° Southwest 441 507 35,400 -1,880 Descending FlightAware ADS-B
Sat 06:27:40 AM 33.9070 -95.2920 236° Southwest 450 518 33,400 -3,253 Descending FlightAware ADS-B
Sat 06:28:24 AM 33.8540 -95.3850 236° Southwest 468 539 30,900 -3,357 Descending FlightAware ADS-B
Sat 06:29:04 AM 33.8060 -95.4710 236° Southwest 470 541 28,700 -3,073 Descending FlightAware ADS-B
Sat 06:29:46 AM 33.7540 -95.5620 236° Southwest 471 542 26,700 -2,786 Descending FlightAware ADS-B
Sat 06:30:28 AM 33.7030 -95.6530 236° Southwest 461 531 24,800 -2,690 Descending FlightAware ADS-B
Sat 06:31:13 AM 33.6510 -95.7450 236° Southwest 450 518 22,800 -2,721 Descending FlightAware ADS-B
Sat 06:31:54 AM 33.6020 -95.8290 235° Southwest 440 506 20,900 -2,741 Descending FlightAware ADS-B
Sat 06:32:34 AM 33.5560 -95.9090 235° Southwest 437 503 19,100 -2,675 Descending FlightAware ADS-B
Sat 06:33:17 AM 33.5070 -95.9930 235° Southwest 432 497 17,200 -2,714 Descending FlightAware ADS-B
Sat 06:33:58 AM 33.4610 -96.0740 236° Southwest 421 484 15,300 -2,667 Descending FlightAware ADS-B
Sat 06:34:38 AM 33.4170 -96.1490 235° Southwest 403 464 13,600 -2,061 Descending FlightAware ADS-B
Sat 06:35:37 AM 33.3580 -96.2510 235° Southwest 353 406 11,900 -1,320 Descending FlightAware ADS-B
Sat 06:36:18 AM 33.3220 -96.3140 236° Southwest 313 360 11,400 -698 Descending FlightAware ADS-B
Sat 06:37:03 AM 33.2880 -96.3740 236° Southwest 279 321 10,900 -429 Descending FlightAware ADS-B
Sat 06:37:42 AM 33.2620 -96.4220 237° Southwest 274 315 10,800 -217 Descending FlightAware ADS-B
Sat 06:38:26 AM 33.2400 -96.4870 248° West 277 319 10,600 -667 Descending FlightAware ADS-B
Sat 06:38:54 AM 33.2270 -96.5250 248° West 272 313 10,000 -643 Descending FlightAware ADS-B
Sat 06:39:22 AM 33.2130 -96.5650 247° West 280 322 10,000 -226 Level FlightAware ADS-B
Sat 06:39:47 AM 33.2010 -96.6000 248° West 281 323 9,800 -444 Descending FlightAware ADS-B
Sat 06:40:16 AM 33.1860 -96.6430 247° West 281 323 9,600 -977 Descending FlightAware ADS-B
Sat 06:41:13 AM 33.1580 -96.7220 247° West 272 313 8,400 -1,256 Descending FlightAware ADS-B
Sat 06:41:42 AM 33.1440 -96.7620 247° West 265 305 7,800 -1,286 Descending FlightAware ADS-B
Sat 06:42:09 AM 33.1310 -96.7970 246° West 261 300 7,200 -1,418 Descending FlightAware ADS-B
Sat 06:42:37 AM 33.1180 -96.8340 247° West 250 288 6,500 -1,368 Descending FlightAware ADS-B
Sat 06:43:06 AM 33.1070 -96.8720 251° West 240 276 5,900 -1,393 Descending FlightAware ADS-B
Sat 06:43:33 AM 33.0950 -96.9030 245° Southwest 240 276 5,200 -1,714 Descending FlightAware ADS-B
Sat 06:44:02 AM 33.0810 -96.9380 244° Southwest 240 276 4,300 -1,263 Descending FlightAware ADS-B
Sat 06:44:30 AM 33.0700 -96.9720 249° West 224 258 4,000 -857 Descending FlightAware ADS-B
Sat 06:44:58 AM 33.0590 -97.0020 246° West 206 237 3,500 -857 Descending FlightAware ADS-B
Sat 06:45:19 AM 33.0520 -97.0220 247° West 189 217 3,300 -353 Descending FlightAware ADS-B
Sat 06:46:06 AM 33.0490 -97.0300 246° West 186 214 3,100 -871 Descending FlightAware ADS-B
Sat 06:46:21 AM 33.0170 -97.0540 212° Southwest 148 170 2,400 -2,000 Descending FlightAware ADS-B
Sat 06:46:33 AM 33.0090 -97.0540 180° South 145 167 2,200 -833 Descending FlightAware ADS-B
Sat 06:46:57 AM 32.9920 -97.0540 180° South 147 169 1,900 -706 Descending FlightAware ADS-B
Sat 06:47:24 AM 32.9740 -97.0540 180° South 147 169 1,600 -575 Descending FlightAware ADS-B
Sat 06:48:10 AM 32.9436 -97.0544 180° South 144 166 1,200 -658 Descending Fort Worth Center
Sat 06:48:37 AM 32.9167 -97.0500 172° South 153 176 800 -889 Descending Dallas / Fort Worth TRACON

Login

Don't have an account? Register now (free) for customized features, flight alerts, and more!